| time (UTC) | temp F | wind direction | speed MPH | gust MPH | rain 1hr in | rain 24hr in | rain mn in | humidity % | barometer mb |
| 20260505170041 | 64 | 103 | 1.0 | 4.0 | 0.00 | 0.00 | 0.00 | 65 | 1016.1 |
| 20260505163040 | 65 | 97 | 3.0 | 7.0 | 0.00 | 0.00 | 0.00 | 66 | 1016.4 |
| 20260505153039 | 67 | 107 | 3.0 | 6.0 | 0.00 | 0.00 | 0.00 | 62 | 1016.7 |
| 20260505123036 | 68 | 134 | 11.0 | 11.0 | 0.00 | 0.00 | 0.00 | 64 | 1017.6 |
| 20260505120036 | 68 | 109 | 2.0 | 7.0 | 0.00 | 0.00 | 0.00 | 70 | 1018.1 |
| 20260505100034 | 67 | 168 | 9.0 | 10.0 | 0.00 | 0.00 | 0.00 | 72 | 1018.4 |
| 20260505093033 | 66 | 102 | 3.0 | 8.0 | 0.00 | 0.00 | 0.00 | 70 | 1018.4 |
| 20260505083032 | 63 | 126 | 2.0 | 8.0 | 0.00 | 0.00 | 0.00 | 77 | 1018.6 |
| 20260505073031 | 59 | 132 | 1.0 | 8.0 | 0.00 | 0.00 | 0.00 | 84 | 1018.7 |
| 20260505060030 | 57 | 92 | 2.0 | 6.0 | 0.00 | 0.00 | 0.00 | 84 | 1017.9 |
| 20260505053028 | 56 | 105 | 1.0 | 6.0 | 0.00 | 0.00 | 0.00 | 88 | 1018.1 |
| 20260505040027 | 55 | 118 | 1.0 | 8.0 | 0.00 | 0.00 | 0.00 | 89 | 1017.6 |
| 20260505033027 | 56 | 84 | 1.0 | 7.0 | 0.00 | 0.00 | 0.00 | 89 | 1017.7 |
| 20260505030026 | 56 | 135 | 4.0 | 8.0 | 0.00 | 0.00 | 0.00 | 89 | 1017.6 |
| 20260505023025 | 56 | 112 | 6.0 | 9.0 | 0.00 | 0.00 | 0.00 | 89 | 1017.9 |
| 20260505020025 | 56 | 86 | 7.0 | 9.0 | 0.00 | 0.00 | 0.00 | 88 | 1018.3 |
| 20260505013024 | 56 | 84 | 3.0 | 10.0 | 0.00 | 0.00 | 0.00 | 88 | 1018.2 |
| 20260505010024 | 56 | 128 | 8.0 | 9.0 | 0.00 | 0.00 | 0.00 | 88 | 1018.2 |
| 20260505003023 | 56 | 80 | 4.0 | 7.0 | 0.00 | 0.00 | 0.00 | 87 | 1018.5 |
| 20260505000023 | 56 | 115 | 6.0 | 10.0 | 0.00 | 0.00 | 0.00 | 87 | 1018.8 |
| 20260504233022 | 56 | 90 | 4.0 | 9.0 | 0.00 | 0.00 | 0.00 | 86 | 1019.2 |
| 20260504230022 | 56 | 51 | 2.0 | 9.0 | 0.00 | 0.00 | 0.00 | 87 | 1019.6 |
| 20260504223022 | 57 | 105 | 6.0 | 7.0 | 0.00 | 0.00 | 0.00 | 86 | 1019.8 |
| 20260504220051 | 56 | 107 | 3.0 | 7.0 | 0.00 | 0.00 | 0.00 | 85 | 1019.7 |
| 20260504213021 | 57 | 98 | 3.0 | 8.0 | 0.00 | 0.00 | 0.00 | 86 | 1019.7 |
| 20260504203020 | 57 | 110 | 2.0 | 7.0 | 0.00 | 0.00 | 0.00 | 85 | 1020.1 |
| 20260504200049 | 57 | 134 | 7.0 | 7.0 | 0.00 | 0.00 | 0.00 | 84 | 1020.1 |
| 20260504193052 | 58 | 103 | 3.0 | 11.0 | 0.00 | 0.00 | 0.00 | 83 | 1019.7 |
| 20260504183048 | 59 | 108 | 2.0 | 6.0 | 0.00 | 0.00 | 0.00 | 78 | 1019.1 |
| 20260504180047 | 59 | 74 | 1.0 | 4.0 | 0.00 | 0.00 | 0.00 | 79 | 1018.9 |